Prévision chaque heure sur Domdidier


  Conditions Température Point de rosée PrécipitationProbabilité d'orage Vent Pression UV Index Couverture nuageuse Visibilité
 07:43     16:52   La longueur du jour: 9:09 Aujourd'hui
19:00 7 °
Sensation de: 4.0°
4.1°   0%
1
Max: 6 km/h
1014.0 hPa   84% 21 km
20:00 7 °
Sensation de: 3.1°
3.6°   0%
1
Max: 5 km/h
1014.0 hPa   65% 21 km
21:00 6 °
Sensation de: 2.0°
3.0°   0%
1
Max: 5 km/h
1014.4 hPa   39% 21 km
22:00 5 °
Sensation de: 0.6°
2.1°   0%
1
Max: 5 km/h
1014.8 hPa   7% 21 km
23:00 4 °
Sensation de: 0.1°
1.1°   0%
0
Max: 5 km/h
1015.0 hPa   4% 22 km
 07:44     16:51   La longueur du jour: 9:07 Demain
00:00 3 °
Sensation de: -1.6°
0.3°   0%
1
Max: 5 km/h
1015.0 hPa   6% 22 km
01:00 2 °
Sensation de: -1.6°
-0.6°   0%
0
Max: 5 km/h
1015.0 hPa   14% 22 km
02:00 1 °
Sensation de: -2.4°
-1.2°   0%
0
Max: 5 km/h
1014.8 hPa   30% 22 km
03:00 1 °
Sensation de: -2.9°
-1.9°   0%
0
Max: 5 km/h
1014.4 hPa   45% 23 km
04:00 0 °
Sensation de: -3.2°
-2.4°   0%
0
Max: 5 km/h
1014.0 hPa   53% 23 km
05:00 0 °
Sensation de: -3.6°
-2.8°   0%
0
Max: 5 km/h
1014.0 hPa   52% 23 km
06:00 -0 °
Sensation de: -3.8°
-3.2°   0%
0
Max: 5 km/h
1014.0 hPa   49% 23 km
07:00 -1 °
Sensation de: -4.2°
-3.5°   0%
0
Max: 5 km/h
1013.6 hPa   46% 24 km
08:00 -1 °
Sensation de: -4.5°
-3.7°   0%
0
Max: 5 km/h
1013.2 hPa   48% 24 km
09:00 1 °
Sensation de: -3.0°
-0.6°   0%
0
Max: 5 km/h
1012.6 hPa   50% 24 km
10:00 2 °
Sensation de: -1.1°
2.3°   0%
0
Max: 5 km/h
1012.2 hPa   52% 15 km
11:00 4 °
Sensation de: 1.0°
4.1°   0%
0
Max: 5 km/h
1011.6 hPa 55% 16 km
12:00 6 °
Sensation de: 3.1°
5.9°   0%
0
Max: 5 km/h
1010.8 hPa 58% 17 km
13:00 7 °
Sensation de: 4.8°
7.1°   0%
0
Max: 5 km/h
1009.8 hPa 62% 16 km
14:00 8 °
Sensation de: 5.4°
7.6°   0%
1
Max: 7 km/h
1008.8 hPa 66% 19 km
15:00 9 °
Sensation de: 6.0°
7.7°   0%
1
Max: 9 km/h
1008.2 hPa   71% 20 km
16:00 9 °
Sensation de: 5.7°
7.2°   0%
1
Max: 9 km/h
1008.0 hPa   75% 20 km
17:00 8 °
Sensation de: 4.4°
6.1°   0%
1
Max: 8 km/h
1008.0 hPa   79% 20 km
18:00 7 °
Sensation de: 3.2°
5.1°   0%
1
Max: 6 km/h
1008.0 hPa   82% 20 km
19:00 6 °
Sensation de: 2.2°
4.4°   0%
1
Max: 5 km/h
1008.0 hPa   87% 20 km
20:00 6 °
Sensation de: 1.7°
3.8°   0%
1
Max: 5 km/h
1008.0 hPa   95% 20 km
21:00 5 °
Sensation de: 1.4°
3.5°   0%
1
Max: 6 km/h
1007.6 hPa   99% 21 km
22:00 5 °
Sensation de: 0.7°
3.4°   0%
2
Max: 7 km/h
1007.2 hPa   100% 21 km
23:00 5 °
Sensation de: 1.3°
3.3°   0%
1
Max: 6 km/h
1007.0 hPa   100% 21 km
 07:45     16:51   La longueur du jour: 9:06 Samedi 23 Nov
00:00 5 °
Sensation de: 1.2°
3.1°   0%
1
Max: 6 km/h
1006.8 hPa   100% 21 km
01:00 5 °
Sensation de: 1.0°
2.9°   0%
1
Max: 5 km/h
1006.4 hPa   100% 21 km
02:00 5 °
Sensation de: 1.6°
2.7°   0%
0
Max: 5 km/h
1006.0 hPa   100% 21 km
03:00 5 °
Sensation de: 1.8°
2.6°   0%
0
Max: 5 km/h
1005.6 hPa   100% 21 km
04:00 5 °
Sensation de: 2.1°
2.5°   0%
0
Max: 5 km/h
1005.0 hPa   100% 21 km
05:00 5 °
Sensation de: 1.6°
2.4°   0%
1
Max: 5 km/h
1004.4 hPa   100% 21 km
06:00 6 °
Sensation de: 1.0°
2.4°   0%
2
Max: 9 km/h
1004.0 hPa   100% 21 km
07:00 6 °
Sensation de: 1.1°
2.3°   0%
2
Max: 11 km/h
1004.0 hPa   100% 22 km
08:00 6 °
Sensation de: 1.2°
2.3°   0%
2
Max: 10 km/h
1004.0 hPa   100% 22 km
09:00 6 °
Sensation de: 1.8°
2.8°   0%
2
Max: 9 km/h
1004.0 hPa   100% 22 km
10:00 7 °
Sensation de: 3.2°
3.3°   0%
1
Max: 9 km/h
1004.0 hPa   100% 22 km
11:00 7 °
Sensation de: 3.7°
3.6°   0%
1
Max: 8 km/h
1004.0 hPa   100% 22 km
12:00 8 °
Sensation de: 4.5°
4.0°   0%
1
Max: 7 km/h
1003.6 hPa   100% 22 km
13:00 9 °
Sensation de: 5.8°
4.6°   0%
1
Max: 6 km/h
1003.2 hPa   100% 22 km
14:00 10 °
Sensation de: 7.4°
5.0°   0%
0
Max: 5 km/h
1003.0 hPa   97% 22 km
15:00 10 °
Sensation de: 7.4°
5.2°   0%
1
Max: 7 km/h
1003.2 hPa   87% 22 km
16:00 10 °
Sensation de: 7.3°
5.2°   0%
1
Max: 8 km/h
1003.8 hPa   65% 22 km
17:00 9 °
Sensation de: 6.7°
4.9°   0%
0
Max: 5 km/h
1004.6 hPa   74% 22 km
18:00 8 °
Sensation de: 5.9°
4.8°   0%
0
Max: 5 km/h
1005.4 hPa   76% 22 km